Météo par heure à Kistenevo

Ce jour, 8 Mars, Lundi

Heure Température Précipitation Vent Pression Humidité
00:00 -9°C° 0.3 mm 6 m/s 731 mmHg 90%
01:00 -10°C° 0 mm 6 m/s 732 mmHg 87%
02:00 -11°C° 0 mm 6 m/s 732 mmHg 84%
03:00 -12°C° 0 mm 6 m/s 733 mmHg 81%
04:00 -12°C° 0 mm 5 m/s 733 mmHg 84%
05:00 -13°C° 0 mm 5 m/s 733 mmHg 87%
06:00 -12°C° 0 mm 4 m/s 733 mmHg 90%
07:00 -12°C° 0.1 mm 4 m/s 733 mmHg 91%
08:00 -11°C° 0.1 mm 4 m/s 733 mmHg 93%
09:00 -10°C° 0.1 mm 4 m/s 733 mmHg 94%
10:00 -10°C° 0.3 mm 5 m/s 734 mmHg 93%
11:00 -9°C° 0.3 mm 6 m/s 734 mmHg 92%
12:00 -8°C° 0.3 mm 7 m/s 734 mmHg 91%
13:00 -8°C° 0.2 mm 7 m/s 734 mmHg 85%
14:00 -9°C° 0.2 mm 7 m/s 735 mmHg 80%
15:00 -9°C° 0.2 mm 7 m/s 735 mmHg 75%
16:00 -10°C° 0 mm 6 m/s 736 mmHg 79%
17:00 -11°C° 0 mm 5 m/s 737 mmHg 82%
18:00 -11°C° 0 mm 4 m/s 737 mmHg 86%
19:00 -12°C° 0 mm 3 m/s 738 mmHg 87%
20:00 -13°C° 0 mm 3 m/s 739 mmHg 89%
21:00 -13°C° 0 mm 2 m/s 739 mmHg 91%
22:00 -14°C° 0 mm 2 m/s 740 mmHg 92%
23:00 -15°C° 0 mm 2 m/s 740 mmHg 93%

Demain, 9 Mars, Mardi

Heure Température Précipitation Vent Pression Humidité
00:00 -15°C° 0 mm 2 m/s 740 mmHg 93%
01:00 -16°C° 0 mm 2 m/s 741 mmHg 94%
02:00 -16°C° 0 mm 2 m/s 741 mmHg 95%
03:00 -17°C° 0 mm 2 m/s 741 mmHg 96%
04:00 -17°C° 0 mm 2 m/s 742 mmHg 96%
05:00 -18°C° 0 mm 2 m/s 742 mmHg 97%
06:00 -18°C° 0 mm 2 m/s 742 mmHg 97%
07:00 -17°C° 0 mm 2 m/s 742 mmHg 96%
08:00 -17°C° 0 mm 2 m/s 743 mmHg 96%
09:00 -16°C° 0 mm 2 m/s 743 mmHg 95%
10:00 -16°C° 0 mm 3 m/s 743 mmHg 93%
11:00 -15°C° 0 mm 3 m/s 744 mmHg 91%
12:00 -14°C° 0 mm 3 m/s 744 mmHg 89%
13:00 -13°C° 0 mm 3 m/s 744 mmHg 88%
14:00 -13°C° 0 mm 3 m/s 744 mmHg 87%
15:00 -14°C° 0 mm 4 m/s 745 mmHg 86%
16:00 -13°C° 0 mm 3 m/s 745 mmHg 88%
17:00 -14°C° 0 mm 3 m/s 745 mmHg 90%
18:00 -15°C° 0 mm 3 m/s 746 mmHg 93%
19:00 -17°C° 0 mm 3 m/s 746 mmHg 93%
20:00 -18°C° 0 mm 3 m/s 747 mmHg 94%
21:00 -21°C° 0 mm 3 m/s 747 mmHg 95%
22:00 -22°C° 0 mm 3 m/s 747 mmHg 96%
23:00 -23°C° 0 mm 3 m/s 748 mmHg 97%

Après-demain, 10 Mars, Mercredi

Heure Température Précipitation Vent Pression Humidité
00:00 -24°C° 0 mm 3 m/s 748 mmHg 98%
01:00 -25°C° 0 mm 3 m/s 748 mmHg 98%
02:00 -26°C° 0 mm 3 m/s 749 mmHg 98%
03:00 -26°C° 0 mm 3 m/s 749 mmHg 98%
04:00 -27°C° 0 mm 3 m/s 749 mmHg 98%
05:00 -27°C° 0 mm 3 m/s 750 mmHg 98%
06:00 -29°C° 0 mm 3 m/s 750 mmHg 98%
07:00 -27°C° 0 mm 3 m/s 751 mmHg 98%
08:00 -27°C° 0 mm 3 m/s 751 mmHg 97%
09:00 -26°C° 0 mm 3 m/s 752 mmHg 96%
10:00 -25°C° 0 mm 3 m/s 752 mmHg 94%
11:00 -23°C° 0 mm 3 m/s 752 mmHg 92%
12:00 -22°C° 0 mm 3 m/s 752 mmHg 90%
13:00 -21°C° 0 mm 3 m/s 753 mmHg 88%
14:00 -21°C° 0 mm 3 m/s 753 mmHg 87%
15:00 -19°C° 0 mm 3 m/s 753 mmHg 86%
16:00 -21°C° 0 mm 3 m/s 753 mmHg 88%
17:00 -22°C° 0 mm 3 m/s 753 mmHg 91%
18:00 -23°C° 0 mm 2 m/s 753 mmHg 93%
19:00 -24°C° 0 mm 2 m/s 754 mmHg 94%
20:00 -25°C° 0 mm 2 m/s 754 mmHg 95%
21:00 -26°C° 0 mm 2 m/s 755 mmHg 96%
22:00 -26°C° 0 mm 2 m/s 755 mmHg 96%
23:00 -27°C° 0 mm 2 m/s 755 mmHg 96%

11 Mars, Jeudi

Heure Température Précipitation Vent Pression Humidité
00:00 -27°C° 0 mm 2 m/s 755 mmHg 97%
01:00 -28°C° 0 mm 2 m/s 755 mmHg 97%
02:00 -28°C° 0 mm 2 m/s 755 mmHg 96%
03:00 -28°C° 0 mm 2 m/s 756 mmHg 96%
04:00 -28°C° 0 mm 2 m/s 756 mmHg 95%
05:00 -29°C° 0 mm 2 m/s 756 mmHg 95%
06:00 -29°C° 0 mm 2 m/s 756 mmHg 94%
07:00 -27°C° 0 mm 2 m/s 756 mmHg 93%
08:00 -26°C° 0 mm 2 m/s 757 mmHg 92%
09:00 -24°C° 0 mm 2 m/s 757 mmHg 91%
10:00 -23°C° 0 mm 2 m/s 757 mmHg 89%
11:00 -20°C° 0 mm 2 m/s 757 mmHg 86%
12:00 -18°C° 0 mm 2 m/s 757 mmHg 84%
13:00 -17°C° 0 mm 2 m/s 757 mmHg 85%
14:00 -16°C° 0 mm 2 m/s 757 mmHg 85%
15:00 -15°C° 0 mm 2 m/s 757 mmHg 86%
16:00 -17°C° 0 mm 2 m/s 757 mmHg 88%
17:00 -18°C° 0 mm 2 m/s 757 mmHg 90%
18:00 -19°C° 0 mm 2 m/s 757 mmHg 93%
19:00 -20°C° 0 mm 2 m/s 757 mmHg 93%
20:00 -21°C° 0 mm 2 m/s 757 mmHg 93%
21:00 -23°C° 0 mm 2 m/s 757 mmHg 93%
22:00 -23°C° 0 mm 2 m/s 757 mmHg 92%
23:00 -24°C° 0 mm 2 m/s 758 mmHg 91%

12 Mars, Vendredi

Heure Température Précipitation Vent Pression Humidité
00:00 -24°C° 0 mm 2 m/s 758 mmHg 91%
01:00 -25°C° 0 mm 2 m/s 758 mmHg 90%
02:00 -25°C° 0 mm 2 m/s 758 mmHg 88%
03:00 -25°C° 0 mm 2 m/s 758 mmHg 87%
04:00 -26°C° 0 mm 2 m/s 757 mmHg 87%
05:00 -26°C° 0 mm 2 m/s 757 mmHg 86%
06:00 -26°C° 0 mm 2 m/s 757 mmHg 86%
07:00 -25°C° 0 mm 3 m/s 757 mmHg 84%
08:00 -25°C° 0 mm 4 m/s 757 mmHg 82%
09:00 -23°C° 0 mm 4 m/s 757 mmHg 80%
10:00 -20°C° 0 mm 4 m/s 757 mmHg 79%
11:00 -20°C° 0 mm 5 m/s 756 mmHg 77%
12:00 -18°C° 0 mm 5 m/s 756 mmHg 76%
13:00 -17°C° 0 mm 5 m/s 755 mmHg 76%
14:00 -16°C° 0 mm 6 m/s 755 mmHg 75%
15:00 -15°C° 0 mm 6 m/s 754 mmHg 74%
16:00 -16°C° 0 mm 6 m/s 754 mmHg 76%
17:00 -17°C° 0 mm 6 m/s 753 mmHg 77%
18:00 -18°C° 0 mm 6 m/s 752 mmHg 78%
19:00 -18°C° 0 mm 6 m/s 752 mmHg 79%
20:00 -18°C° 0 mm 6 m/s 751 mmHg 81%
21:00 -18°C° 0 mm 6 m/s 751 mmHg 82%
22:00 -19°C° 0 mm 7 m/s 750 mmHg 81%
23:00 -18°C° 0 mm 7 m/s 750 mmHg 80%

13 Mars, Samedi

Heure Température Précipitation Vent Pression Humidité
00:00 -18°C° 0 mm 7 m/s 749 mmHg 78%
01:00 -17°C° 0.2 mm 8 m/s 749 mmHg 82%
02:00 -17°C° 0.2 mm 8 m/s 748 mmHg 87%
03:00 -16°C° 0.2 mm 8 m/s 748 mmHg 91%
04:00 -16°C° 0.1 mm 8 m/s 747 mmHg 90%
05:00 -16°C° 0.1 mm 8 m/s 747 mmHg 90%
06:00 -15°C° 0.1 mm 8 m/s 746 mmHg 90%
07:00 -15°C° 0.2 mm 8 m/s 746 mmHg 90%
08:00 -14°C° 0.2 mm 9 m/s 746 mmHg 91%
09:00 -14°C° 0.2 mm 9 m/s 746 mmHg 92%
10:00 -12°C° 0.2 mm 9 m/s 746 mmHg 91%
11:00 -11°C° 0.2 mm 8 m/s 746 mmHg 91%
12:00 -11°C° 0.2 mm 8 m/s 746 mmHg 91%
13:00 -10°C° 0.1 mm 8 m/s 745 mmHg 90%
14:00 -10°C° 0.1 mm 8 m/s 745 mmHg 90%
15:00 -8°C° 0.1 mm 7 m/s 745 mmHg 89%
16:00 -8°C° 0.1 mm 7 m/s 745 mmHg 91%
17:00 -9°C° 0.1 mm 7 m/s 745 mmHg 92%
18:00 -9°C° 0.1 mm 6 m/s 745 mmHg 93%
19:00 -9°C° 0.1 mm 6 m/s 745 mmHg 93%
20:00 -8°C° 0.1 mm 6 m/s 745 mmHg 93%
21:00 -8°C° 0.1 mm 6 m/s 745 mmHg 93%
22:00 -7°C° 0.1 mm 5 m/s 745 mmHg 94%
23:00 -6°C° 0.1 mm 5 m/s 745 mmHg 95%
Voir plus

Nous avons besoin de votre consentement

Meteoprog et ses fournisseurs de services peuvent stocker et accéder à des données personnelles telles que des cookies, des identifiants d'appareils ou d'autres technologies similaires sur votre appareil et traiter ces données pour personnaliser le contenu et les publicités, ainsi que pour fournir des fonctionnalités de médias sociaux et analyser le trafic.

  • Stocker et/ou accéder à des informations sur votre appareil

    Des cookies, des identifiants d'appareils ou d'autres informations peuvent être stockés ou accessibles sur votre appareil aux fins indiquées ci-dessus.

  • Annonces et contenus personnalisés, mesure des annonces et des contenus, connaissance de l'audience et développement de produits

    Les annonces et le contenu peuvent être personnalisés en fonction d'un profil. D'autres données peuvent être ajoutées pour mieux personnaliser les annonces et le contenu. Les performances des publicités et du contenu peuvent être mesurées. Il est possible d'obtenir des informations sur le public qui a vu les publicités et le contenu. Ces données peuvent être utilisées pour développer ou améliorer l'expérience de l'utilisateur, les systèmes et les logiciels.

En cliquant sur "J'accepte", vous autorisez l'utilisation de cookies, des identifiants d'appareils, des balises web ou d'autres technologies similaires. Vos paramètres peuvent être modifiés dans le navigateur de votre appareil.

Dans certains cas, des intérêts légitimes peuvent être invoqués plutôt qu'un consentement. Vous pouvez en savoir plus à ce sujet dans notre Politique de confidentialité et de cookies.